| time (UTC) | temp F | wind direction | speed knots | gust knots | rain 1hr in | rain 24hr in | rain mn in | humidity % | barometer mb |
| 20260510184029 | 55 | 21 | 22.6 | 26.1 | 0.00 | 0.00 | 0.00 | 72 | 1010.9 |
| 20260510183530 | 55 | 21 | 16.5 | 21.7 | 0.00 | 0.00 | 0.00 | 72 | 1010.7 |
| 20260510183030 | 55 | 25 | 15.6 | 22.6 | 0.00 | 0.00 | 0.00 | 72 | 1010.8 |
| 20260510182529 | 55 | 23 | 13.0 | 23.5 | 0.00 | 0.00 | 0.00 | 70 | 1010.6 |
| 20260510182030 | 56 | 16 | 17.4 | 26.1 | 0.00 | 0.00 | 0.00 | 70 | 1010.7 |
| 20260510181528 | 56 | 23 | 17.4 | 26.1 | 0.00 | 0.00 | 0.00 | 70 | 1010.8 |
| 20260510181027 | 56 | 11 | 22.6 | 24.3 | 0.00 | 0.00 | 0.00 | 70 | 1010.8 |
| 20260510180528 | 56 | 8 | 17.4 | 24.3 | 0.00 | 0.00 | 0.00 | 70 | 1010.8 |
| 20260510180027 | 57 | 20 | 15.6 | 22.6 | 0.00 | 0.00 | 0.00 | 69 | 1010.7 |
| 20260510175524 | 57 | 26 | 14.8 | 24.3 | 0.00 | 0.00 | 0.00 | 69 | 1010.7 |
| 20260510175024 | 57 | 5 | 17.4 | 24.3 | 0.00 | 0.00 | 0.00 | 68 | 1010.7 |
| 20260510174523 | 58 | 27 | 13.0 | 21.7 | 0.00 | 0.00 | 0.00 | 68 | 1010.8 |
| 20260510174022 | 58 | 0 | 14.8 | 22.6 | 0.00 | 0.00 | 0.00 | 69 | 1010.9 |
| 20260510173523 | 58 | 2 | 13.9 | 22.6 | 0.00 | 0.00 | 0.00 | 68 | 1010.6 |
| 20260510173021 | 58 | 2 | 14.8 | 22.6 | 0.00 | 0.00 | 0.00 | 68 | 1010.7 |
| 20260510172521 | 58 | 3 | 13.9 | 21.7 | 0.00 | 0.00 | 0.00 | 67 | 1010.6 |
| 20260510172021 | 58 | 15 | 12.2 | 25.2 | 0.00 | 0.00 | 0.00 | 67 | 1010.8 |
| 20260510171757 | 59 | 3 | 14.8 | 25.2 | 0.00 | 0.00 | 0.00 | 67 | 1010.7 |
| 20260510171255 | 59 | 14 | 14.8 | 23.5 | 0.00 | 0.00 | 0.00 | 66 | 1010.9 |
| 20260510170519 | 59 | 16 | 16.5 | 22.6 | 0.00 | 0.00 | 0.00 | 66 | 1010.7 |
| 20260510170019 | 59 | 7 | 13.9 | 20.0 | 0.00 | 0.00 | 0.00 | 66 | 1010.8 |
| 20260510165519 | 60 | 14 | 15.6 | 23.5 | 0.00 | 0.00 | 0.00 | 65 | 1010.9 |
| 20260510165017 | 60 | 14 | 17.4 | 23.5 | 0.00 | 0.00 | 0.00 | 64 | 1011.0 |
| 20260510164517 | 60 | 12 | 19.1 | 22.6 | 0.00 | 0.00 | 0.00 | 64 | 1011.0 |
| 20260510164016 | 60 | 11 | 14.8 | 23.5 | 0.00 | 0.00 | 0.00 | 64 | 1010.8 |
| 20260510163517 | 61 | 20 | 19.1 | 23.5 | 0.00 | 0.00 | 0.00 | 63 | 1010.8 |
| 20260510163015 | 61 | 353 | 19.1 | 26.1 | 0.00 | 0.00 | 0.00 | 61 | 1011.0 |
| 20260510162515 | 61 | 0 | 16.5 | 26.1 | 0.00 | 0.00 | 0.00 | 61 | 1011.1 |
| 20260510162015 | 62 | 24 | 9.6 | 20.9 | 0.00 | 0.00 | 0.00 | 61 | 1011.1 |
| 20260510161514 | 61 | 0 | 12.2 | 22.6 | 0.00 | 0.00 | 0.00 | 62 | 1011.1 |
| 20260510161013 | 61 | 0 | 20.0 | 22.6 | 0.00 | 0.00 | 0.00 | 61 | 1010.9 |
| 20260510160512 | 62 | 0 | 14.8 | 23.5 | 0.00 | 0.00 | 0.00 | 60 | 1011.0 |
| 20260510160245 | 62 | 12 | 17.4 | 24.3 | 0.00 | 0.00 | 0.00 | 61 | 1011.3 |
| 20260510155509 | 62 | 3 | 16.5 | 24.3 | 0.00 | 0.00 | 0.00 | 60 | 1011.1 |
| 20260510155242 | 62 | 20 | 18.2 | 23.5 | 0.00 | 0.00 | 0.00 | 59 | 1011.4 |
| 20260510154511 | 62 | 2 | 14.8 | 23.5 | 0.00 | 0.00 | 0.00 | 59 | 1011.5 |
| 20260510154008 | 62 | 0 | 9.6 | 20.9 | 0.00 | 0.00 | 0.00 | 59 | 1011.4 |
| 20260510153509 | 63 | 350 | 13.9 | 20.9 | 0.00 | 0.00 | 0.00 | 58 | 1011.4 |
| 20260510153008 | 63 | 353 | 14.8 | 22.6 | 0.00 | 0.00 | 0.00 | 58 | 1011.4 |
| 20260510152507 | 63 | 21 | 20.9 | 22.6 | 0.00 | 0.00 | 0.00 | 58 | 1011.6 |
| 20260510152006 | 63 | 5 | 13.9 | 21.7 | 0.00 | 0.00 | 0.00 | 57 | 1011.6 |
| 20260510151505 | 64 | 29 | 14.8 | 21.7 | 0.00 | 0.00 | 0.00 | 57 | 1011.7 |
| 20260510151007 | 64 | 6 | 10.4 | 21.7 | 0.00 | 0.00 | 0.00 | 56 | 1011.7 |
| 20260510150506 | 64 | 1 | 15.6 | 20.9 | 0.00 | 0.00 | 0.00 | 56 | 1012.0 |
| 20260510150004 | 64 | 29 | 13.9 | 20.9 | 0.00 | 0.00 | 0.00 | 56 | 1011.8 |
| 20260510145505 | 64 | 359 | 13.9 | 20.9 | 0.00 | 0.00 | 0.00 | 56 | 1012.0 |
| 20260510145005 | 64 | 23 | 12.2 | 20.0 | 0.00 | 0.00 | 0.00 | 55 | 1012.1 |
| 20260510144505 | 65 | 13 | 12.2 | 20.0 | 0.00 | 0.00 | 0.00 | 54 | 1012.1 |
| 20260510144002 | 65 | 18 | 15.6 | 20.0 | 0.00 | 0.00 | 0.00 | 53 | 1012.2 |
| 20260510143504 | 65 | 18 | 14.8 | 20.0 | 0.00 | 0.00 | 0.00 | 51 | 1012.2 |
| 20260510143002 | 65 | 345 | 14.8 | 20.0 | 0.00 | 0.00 | 0.00 | 51 | 1012.2 |
| 20260510142503 | 66 | 7 | 11.3 | 24.3 | 0.00 | 0.00 | 0.00 | 51 | 1012.3 |
| 20260510142001 | 66 | 1 | 13.9 | 24.3 | 0.00 | 0.00 | 0.00 | 49 | 1012.3 |
| 20260510141500 | 66 | 23 | 13.9 | 23.5 | 0.00 | 0.00 | 0.00 | 49 | 1012.4 |
| 20260510140959 | 66 | 6 | 17.4 | 23.5 | 0.00 | 0.00 | 0.00 | 50 | 1012.4 |
| 20260510140730 | 66 | 14 | 12.2 | 20.9 | 0.00 | 0.00 | 0.00 | 51 | 1012.3 |
| 20260510135958 | 65 | 6 | 20.0 | 20.0 | 0.00 | 0.00 | 0.00 | 50 | 1012.1 |
| 20260510135458 | 66 | 7 | 12.2 | 21.7 | 0.00 | 0.00 | 0.00 | 51 | 1012.1 |
| 20260510135451 | 66 | 14 | 10.4 | 21.7 | 0.00 | 0.00 | 0.00 | 49 | 1012.3 |
| 20260510134459 | 67 | 13 | 16.5 | 22.6 | 0.00 | 0.00 | 0.00 | 48 | 1012.3 |
| 20260510133956 | 67 | 5 | 13.9 | 22.6 | 0.00 | 0.00 | 0.00 | 49 | 1012.4 |
| 20260510133456 | 67 | 355 | 13.0 | 21.7 | 0.00 | 0.00 | 0.00 | 49 | 1012.5 |
| 20260510132955 | 67 | 29 | 14.8 | 21.7 | 0.00 | 0.00 | 0.00 | 48 | 1012.7 |
| 20260510132455 | 67 | 12 | 15.6 | 20.0 | 0.00 | 0.00 | 0.00 | 48 | 1012.7 |
| 20260510131955 | 67 | 15 | 16.5 | 20.9 | 0.00 | 0.00 | 0.00 | 47 | 1013.0 |
| 20260510131453 | 67 | 23 | 11.3 | 20.9 | 0.00 | 0.00 | 0.00 | 50 | 1012.9 |
| 20260510130955 | 68 | 9 | 15.6 | 19.1 | 0.00 | 0.00 | 0.00 | 48 | 1012.8 |
| 20260510130453 | 68 | 5 | 14.8 | 20.0 | 0.00 | 0.00 | 0.00 | 49 | 1013.1 |
| 20260510125952 | 68 | 5 | 13.9 | 20.0 | 0.00 | 0.00 | 0.00 | 49 | 1013.0 |
| 20260510125451 | 67 | 13 | 9.6 | 22.6 | 0.00 | 0.00 | 0.00 | 49 | 1013.2 |
| 20260510124951 | 68 | 8 | 13.0 | 22.6 | 0.00 | 0.00 | 0.00 | 49 | 1013.2 |
| 20260510124450 | 68 | 12 | 14.8 | 20.9 | 0.00 | 0.00 | 0.00 | 50 | 1013.2 |
| 20260510123952 | 68 | 2 | 11.3 | 20.0 | 0.00 | 0.00 | 0.00 | 48 | 1013.3 |
| 20260510123449 | 68 | 359 | 12.2 | 24.3 | 0.00 | 0.00 | 0.00 | 51 | 1013.3 |
| 20260510122949 | 67 | 19 | 13.0 | 26.1 | 0.00 | 0.00 | 0.00 | 50 | 1013.3 |
| 20260510122448 | 68 | 34 | 14.8 | 26.1 | 0.00 | 0.00 | 0.00 | 50 | 1013.4 |
| 20260510121947 | 67 | 357 | 15.6 | 22.6 | 0.00 | 0.00 | 0.00 | 50 | 1013.6 |
| 20260510121448 | 67 | 10 | 16.5 | 22.6 | 0.00 | 0.00 | 0.00 | 50 | 1013.5 |
| 20260510120948 | 68 | 31 | 13.9 | 21.7 | 0.00 | 0.00 | 0.00 | 50 | 1013.6 |
| 20260510120445 | 68 | 20 | 18.2 | 21.7 | 0.00 | 0.00 | 0.00 | 51 | 1013.4 |
| 20260510115946 | 69 | 4 | 14.8 | 21.7 | 0.00 | 0.00 | 0.00 | 48 | 1013.7 |
| 20260510115721 | 70 | 5 | 13.9 | 19.1 | 0.00 | 0.00 | 0.00 | 48 | 1013.5 |
| 20260510114945 | 69 | 17 | 15.6 | 18.2 | 0.00 | 0.00 | 0.00 | 48 | 1013.7 |
| 20260510114445 | 68 | 1 | 10.4 | 20.0 | 0.00 | 0.00 | 0.00 | 51 | 1013.7 |
| 20260510113943 | 67 | 10 | 12.2 | 21.7 | 0.00 | 0.00 | 0.00 | 52 | 1013.6 |
| 20260510113443 | 68 | 1 | 12.2 | 21.7 | 0.00 | 0.00 | 0.00 | 50 | 1013.8 |
| 20260510112944 | 68 | 7 | 17.4 | 21.7 | 0.00 | 0.00 | 0.00 | 49 | 1013.9 |
| 20260510112442 | 68 | 13 | 11.3 | 22.6 | 0.00 | 0.00 | 0.00 | 49 | 1013.8 |
| 20260510111941 | 67 | 3 | 12.2 | 22.6 | 0.00 | 0.00 | 0.00 | 52 | 1013.8 |
| 20260510111441 | 67 | 357 | 13.9 | 23.5 | 0.00 | 0.00 | 0.00 | 50 | 1013.9 |
| 20260510110939 | 67 | 17 | 14.8 | 23.5 | 0.00 | 0.00 | 0.00 | 51 | 1014.2 |
| 20260510110706 | 67 | 358 | 13.9 | 20.9 | 0.00 | 0.00 | 0.00 | 52 | 1014.0 |
| 20260510105937 | 67 | 15 | 14.8 | 20.9 | 0.00 | 0.00 | 0.00 | 50 | 1014.1 |
| 20260510105439 | 67 | 9 | 16.5 | 19.1 | 0.00 | 0.00 | 0.00 | 50 | 1014.1 |
| 20260510105156 | 66 | 10 | 13.9 | 21.7 | 0.00 | 0.00 | 0.00 | 50 | 1014.3 |
| 20260510104655 | 66 | 2 | 13.9 | 21.7 | 0.00 | 0.00 | 0.00 | 52 | 1014.3 |
| 20260510103930 | 66 | 12 | 14.8 | 23.5 | 0.00 | 0.00 | 0.00 | 51 | 1014.3 |
| 20260510103659 | 66 | 23 | 16.5 | 23.5 | 0.00 | 0.00 | 0.00 | 53 | 1014.4 |
| 20260510102930 | 65 | 14 | 13.0 | 22.6 | 0.00 | 0.00 | 0.00 | 53 | 1014.4 |
| 20260510102701 | 65 | 7 | 15.6 | 22.6 | 0.00 | 0.00 | 0.00 | 52 | 1014.4 |
| 20260510101930 | 64 | 11 | 13.0 | 22.6 | 0.00 | 0.00 | 0.00 | 50 | 1014.7 |
| 20260510101431 | 64 | 23 | 15.6 | 19.1 | 0.00 | 0.00 | 0.00 | 52 | 1014.3 |
| 20260510101204 | 64 | 2 | 14.8 | 22.6 | 0.00 | 0.00 | 0.00 | 49 | 1014.5 |
| 20260510100655 | 65 | 0 | 13.0 | 22.6 | 0.00 | 0.00 | 0.00 | 50 | 1014.5 |
| 20260510095930 | 65 | 353 | 14.8 | 22.6 | 0.00 | 0.00 | 0.00 | 52 | 1014.4 |
| 20260510095430 | 64 | 3 | 13.9 | 20.0 | 0.00 | 0.00 | 0.00 | 51 | 1014.6 |
| 20260510094930 | 64 | 35 | 11.3 | 19.1 | 0.00 | 0.00 | 0.00 | 51 | 1014.6 |
| 20260510094430 | 63 | 1 | 16.5 | 21.7 | 0.00 | 0.00 | 0.00 | 51 | 1014.7 |
| 20260510093929 | 63 | 19 | 12.2 | 23.5 | 0.00 | 0.00 | 0.00 | 50 | 1014.7 |
| 20260510093430 | 63 | 14 | 15.6 | 23.5 | 0.00 | 0.00 | 0.00 | 50 | 1015.0 |
| 20260510092929 | 63 | 21 | 20.9 | 23.5 | 0.00 | 0.00 | 0.00 | 50 | 1015.0 |
| 20260510092428 | 63 | 14 | 13.0 | 23.5 | 0.00 | 0.00 | 0.00 | 51 | 1014.9 |
| 20260510091929 | 63 | 356 | 13.9 | 22.6 | 0.00 | 0.00 | 0.00 | 51 | 1015.0 |
| 20260510091427 | 64 | 2 | 13.9 | 23.5 | 0.00 | 0.00 | 0.00 | 50 | 1015.0 |
| 20260510091418 | 64 | 7 | 19.1 | 24.3 | 0.00 | 0.00 | 0.00 | 50 | 1014.8 |
| 20260510090426 | 64 | 23 | 12.2 | 24.3 | 0.00 | 0.00 | 0.00 | 46 | 1014.9 |
| 20260510085925 | 64 | 355 | 13.9 | 21.7 | 0.00 | 0.00 | 0.00 | 49 | 1014.8 |
| 20260510085424 | 64 | 9 | 10.4 | 22.6 | 0.00 | 0.00 | 0.00 | 54 | 1014.9 |
| 20260510084926 | 64 | 2 | 12.2 | 22.6 | 0.00 | 0.00 | 0.00 | 58 | 1015.0 |
| 20260510084425 | 64 | 8 | 16.5 | 20.0 | 0.00 | 0.00 | 0.00 | 58 | 1015.1 |
| 20260510083924 | 63 | 358 | 16.5 | 20.0 | 0.00 | 0.00 | 0.00 | 57 | 1015.1 |
| 20260510083423 | 64 | 357 | 12.2 | 19.1 | 0.00 | 0.00 | 0.00 | 57 | 1015.0 |
| 20260510082924 | 64 | 11 | 13.0 | 19.1 | 0.00 | 0.00 | 0.00 | 58 | 1015.2 |
| 20260510082422 | 64 | 4 | 14.8 | 20.0 | 0.00 | 0.00 | 0.00 | 58 | 1015.3 |
| 20260510081921 | 63 | 11 | 20.0 | 20.0 | 0.00 | 0.00 | 0.00 | 59 | 1015.2 |
| 20260510081421 | 63 | 32 | 11.3 | 22.6 | 0.00 | 0.00 | 0.00 | 59 | 1015.4 |
| 20260510080919 | 62 | 356 | 17.4 | 22.6 | 0.00 | 0.00 | 0.00 | 59 | 1015.3 |
| 20260510080651 | 63 | 5 | 11.3 | 21.7 | 0.00 | 0.00 | 0.00 | 58 | 1015.3 |
| 20260510075918 | 63 | 16 | 15.6 | 21.7 | 0.00 | 0.00 | 0.00 | 59 | 1015.3 |
| 20260510075420 | 62 | 22 | 10.4 | 19.1 | 0.00 | 0.00 | 0.00 | 60 | 1015.3 |
| 20260510074917 | 61 | 13 | 12.2 | 18.2 | 0.00 | 0.00 | 0.00 | 61 | 1015.5 |
| 20260510074653 | 60 | 10 | 13.0 | 19.1 | 0.00 | 0.00 | 0.00 | 64 | 1015.6 |
| 20260510073919 | 58 | 14 | 16.5 | 20.0 | 0.00 | 0.00 | 0.00 | 67 | 1015.5 |
| 20260510073416 | 58 | 3 | 10.4 | 22.6 | 0.00 | 0.00 | 0.00 | 69 | 1015.5 |
| 20260510072916 | 57 | 0 | 11.3 | 22.6 | 0.00 | 0.00 | 0.00 | 70 | 1015.4 |
| 20260510072415 | 57 | 21 | 11.3 | 17.4 | 0.00 | 0.00 | 0.00 | 72 | 1015.4 |
| 20260510072149 | 56 | 3 | 11.3 | 20.0 | 0.00 | 0.00 | 0.00 | 72 | 1015.6 |
| 20260510071413 | 56 | 8 | 11.3 | 20.0 | 0.00 | 0.00 | 0.00 | 72 | 1015.5 |
| 20260510070915 | 56 | 4 | 13.9 | 20.0 | 0.00 | 0.00 | 0.00 | 73 | 1015.5 |
| 20260510070412 | 56 | 4 | 13.0 | 17.4 | 0.00 | 0.00 | 0.00 | 75 | 1015.4 |
| 20260510070146 | 55 | 21 | 12.2 | 17.4 | 0.00 | 0.00 | 0.00 | 75 | 1015.5 |
| 20260510065409 | 55 | 16 | 11.3 | 17.4 | 0.00 | 0.00 | 0.00 | 75 | 1015.5 |
| 20260510065143 | 55 | 8 | 12.2 | 16.5 | 0.00 | 0.00 | 0.00 | 76 | 1015.5 |
| 20260510064409 | 55 | 2 | 11.3 | 16.5 | 0.00 | 0.00 | 0.00 | 76 | 1015.3 |
| 20260510063908 | 55 | 1 | 9.6 | 16.5 | 0.00 | 0.00 | 0.00 | 76 | 1015.6 |
| 20260510063410 | 54 | 11 | 13.9 | 18.2 | 0.00 | 0.00 | 0.00 | 78 | 1015.7 |
| 20260510062908 | 54 | 19 | 12.2 | 18.2 | 0.00 | 0.00 | 0.00 | 78 | 1015.5 |
| 20260510062407 | 54 | 11 | 10.4 | 16.5 | 0.00 | 0.00 | 0.00 | 79 | 1015.7 |
| 20260510061907 | 53 | 28 | 13.9 | 16.5 | 0.00 | 0.00 | 0.00 | 79 | 1015.6 |
| 20260510061620 | 53 | 30 | 14.8 | 15.6 | 0.00 | 0.00 | 0.00 | 79 | 1015.6 |
| 20260510060405 | 53 | 16 | 10.4 | 15.6 | 0.00 | 0.00 | 0.00 | 81 | 1015.6 |
| 20260510055905 | 53 | 358 | 8.7 | 15.6 | 0.00 | 0.00 | 0.00 | 81 | 1015.5 |
| 20260510055404 | 53 | 6 | 9.6 | 14.8 | 0.00 | 0.00 | 0.00 | 82 | 1015.6 |
| 20260510055133 | 53 | 0 | 8.7 | 14.8 | 0.00 | 0.00 | 0.00 | 82 | 1015.7 |
| 20260510054402 | 52 | 15 | 9.6 | 14.8 | 0.00 | 0.00 | 0.00 | 83 | 1015.5 |
| 20260510053903 | 52 | 33 | 9.6 | 13.9 | 0.00 | 0.00 | 0.00 | 83 | 1015.6 |
| 20260510053635 | 52 | 9 | 8.7 | 13.9 | 0.00 | 0.00 | 0.00 | 83 | 1015.7 |
| 20260510052903 | 52 | 12 | 12.2 | 14.8 | 0.00 | 0.00 | 0.00 | 84 | 1015.5 |
| 20260510052401 | 52 | 18 | 9.6 | 16.5 | 0.00 | 0.00 | 0.00 | 84 | 1015.4 |
| 20260510052354 | 51 | 7 | 13.9 | 16.5 | 0.00 | 0.00 | 0.00 | 85 | 1015.3 |
| 20260510051401 | 51 | 349 | 10.4 | 14.8 | 0.00 | 0.00 | 0.00 | 86 | 1015.5 |
| 20260510050901 | 51 | 11 | 7.8 | 14.8 | 0.00 | 0.00 | 0.00 | 87 | 1015.4 |
| 20260510050359 | 51 | 349 | 11.3 | 12.2 | 0.00 | 0.00 | 0.00 | 88 | 1015.3 |
| 20260510045858 | 51 | 356 | 10.4 | 12.2 | 0.00 | 0.00 | 0.00 | 88 | 1015.4 |
| 20260510045358 | 51 | 355 | 8.7 | 13.9 | 0.00 | 0.00 | 0.00 | 89 | 1015.3 |
| 20260510044859 | 50 | 359 | 9.6 | 13.9 | 0.00 | 0.00 | 0.00 | 89 | 1015.4 |
| 20260510044358 | 50 | 6 | 10.4 | 12.2 | 0.00 | 0.00 | 0.00 | 89 | 1015.5 |
| 20260510043857 | 50 | 353 | 9.6 | 11.3 | 0.00 | 0.00 | 0.00 | 89 | 1015.5 |
| 20260510043357 | 50 | 354 | 8.7 | 11.3 | 0.00 | 0.00 | 0.00 | 89 | 1015.6 |
| 20260510042858 | 50 | 4 | 7.8 | 11.3 | 0.00 | 0.00 | 0.00 | 90 | 1015.5 |
| 20260510042354 | 50 | 2 | 9.6 | 11.3 | 0.00 | 0.00 | 0.00 | 89 | 1015.5 |
| 20260510041901 | 50 | 16 | 7.0 | 10.4 | 0.00 | 0.00 | 0.00 | 88 | 1015.5 |
| 20260510041854 | 50 | 356 | 7.0 | 10.4 | 0.00 | 0.00 | 0.00 | 88 | 1015.6 |
| 20260510040853 | 50 | 359 | 7.8 | 10.4 | 0.00 | 0.00 | 0.00 | 88 | 1015.6 |
| 20260510040352 | 50 | 358 | 7.0 | 10.4 | 0.00 | 0.00 | 0.00 | 88 | 1015.5 |
| 20260510035854 | 50 | 25 | 7.8 | 11.3 | 0.00 | 0.00 | 0.00 | 88 | 1015.4 |
| 20260510035353 | 50 | 32 | 8.7 | 11.3 | 0.00 | 0.00 | 0.00 | 88 | 1015.6 |
| 20260510034851 | 50 | 345 | 7.8 | 11.3 | 0.00 | 0.00 | 0.00 | 88 | 1015.5 |
| 20260510034403 | 50 | 351 | 9.6 | 13.0 | 0.00 | 0.00 | 0.00 | 88 | 1015.4 |
| 20260510034358 | 50 | 349 | 7.8 | 13.0 | 0.00 | 0.00 | 0.00 | 88 | 1015.5 |
| 20260510033350 | 50 | 355 | 9.6 | 13.0 | 0.00 | 0.00 | 0.00 | 87 | 1015.5 |
| 20260510032850 | 50 | 348 | 8.7 | 13.0 | 0.00 | 0.00 | 0.00 | 87 | 1015.3 |
| 20260510032349 | 50 | 350 | 7.8 | 11.3 | 0.00 | 0.00 | 0.00 | 87 | 1015.5 |
| 20260510032126 | 50 | 354 | 8.7 | 11.3 | 0.00 | 0.00 | 0.00 | 87 | 1015.5 |
| 20260510031349 | 50 | 1 | 6.1 | 11.3 | 0.00 | 0.00 | 0.00 | 87 | 1015.4 |
| 20260510030847 | 50 | 356 | 7.0 | 11.3 | 0.00 | 0.00 | 0.00 | 87 | 1015.6 |
| 20260510030359 | 50 | 1 | 8.7 | 11.3 | 0.00 | 0.00 | 0.00 | 87 | 1015.3 |
| 20260510030352 | 50 | 6 | 7.0 | 10.4 | 0.00 | 0.00 | 0.00 | 87 | 1015.5 |
| 20260510025345 | 50 | 0 | 8.7 | 12.2 | 0.00 | 0.00 | 0.00 | 87 | 1015.5 |
| 20260510024845 | 50 | 357 | 7.8 | 12.2 | 0.00 | 0.00 | 0.00 | 87 | 1015.5 |
| 20260510024344 | 50 | 359 | 7.8 | 11.3 | 0.00 | 0.00 | 0.00 | 87 | 1015.5 |
| 20260510023843 | 50 | 3 | 7.0 | 11.3 | 0.00 | 0.00 | 0.00 | 88 | 1015.5 |
| 20260510023343 | 50 | 353 | 9.6 | 11.3 | 0.00 | 0.00 | 0.00 | 88 | 1015.7 |
| 20260510023118 | 50 | 356 | 8.7 | 11.3 | 0.00 | 0.00 | 0.00 | 88 | 1015.5 |
| 20260510022341 | 50 | 13 | 6.1 | 11.3 | 0.00 | 0.00 | 0.00 | 89 | 1015.6 |
| 20260510021841 | 50 | 0 | 7.0 | 10.4 | 0.00 | 0.00 | 0.00 | 89 | 1015.5 |
| 20260510021342 | 50 | 1 | 7.8 | 10.4 | 0.00 | 0.00 | 0.00 | 88 | 1015.6 |
| 20260510021113 | 50 | 3 | 5.2 | 7.8 | 0.00 | 0.00 | 0.00 | 87 | 1015.6 |
| 20260510020338 | 51 | 1 | 7.0 | 7.8 | 0.00 | 0.00 | 0.00 | 87 | 1015.6 |
| 20260510015838 | 51 | 7 | 5.2 | 7.8 | 0.00 | 0.00 | 0.00 | 87 | 1015.7 |
| 20260510015337 | 51 | 2 | 4.3 | 7.8 | 0.00 | 0.00 | 0.00 | 87 | 1015.9 |
| 20260510014838 | 51 | 1 | 4.3 | 7.8 | 0.00 | 0.00 | 0.00 | 86 | 1016.0 |
| 20260510014337 | 51 | 18 | 4.3 | 7.8 | 0.00 | 0.00 | 0.00 | 86 | 1016.2 |
| 20260510013836 | 52 | 0 | 5.2 | 9.6 | 0.00 | 0.00 | 0.00 | 86 | 1016.1 |
| 20260510013336 | 52 | 0 | 6.1 | 9.6 | 0.00 | 0.00 | 0.00 | 87 | 1015.8 |
| 20260510012834 | 52 | 0 | 7.0 | 8.7 | 0.00 | 0.00 | 0.00 | 87 | 1015.7 |
| 20260510012609 | 52 | 8 | 7.8 | 9.6 | 0.00 | 0.00 | 0.00 | 87 | 1015.8 |
| 20260510011834 | 52 | 4 | 7.8 | 9.6 | 0.00 | 0.00 | 0.00 | 87 | 1015.6 |
| 20260510011602 | 52 | 5 | 5.2 | 11.3 | 0.00 | 0.00 | 0.00 | 87 | 1015.7 |
| 20260510010832 | 52 | 18 | 6.1 | 11.3 | 0.00 | 0.00 | 0.00 | 87 | 1015.7 |
| 20260510010332 | 52 | 1 | 7.8 | 11.3 | 0.00 | 0.00 | 0.00 | 87 | 1015.8 |
| 20260510005830 | 52 | 5 | 9.6 | 11.3 | 0.00 | 0.00 | 0.00 | 87 | 1015.8 |
| 20260510005332 | 52 | 353 | 9.6 | 9.6 | 0.00 | 0.00 | 0.00 | 87 | 1015.9 |
| 20260510004833 | 52 | 1 | 6.1 | 9.6 | 0.00 | 0.00 | 0.00 | 87 | 1015.9 |
| 20260510004332 | 52 | 4 | 7.0 | 9.6 | 0.00 | 0.00 | 0.00 | 87 | 1015.8 |
| 20260510003830 | 52 | 355 | 7.0 | 9.6 | 0.00 | 0.00 | 0.00 | 87 | 1015.8 |
| 20260510003329 | 52 | 2 | 6.1 | 9.6 | 0.00 | 0.00 | 0.00 | 86 | 1016.1 |
| 20260510002829 | 52 | 352 | 7.0 | 9.6 | 0.00 | 0.00 | 0.00 | 86 | 1016.1 |
| 20260510002330 | 52 | 353 | 8.7 | 9.6 | 0.00 | 0.00 | 0.00 | 85 | 1016.3 |
| 20260510002056 | 52 | 0 | 7.0 | 8.7 | 0.00 | 0.00 | 0.00 | 84 | 1016.3 |
| 20260510001327 | 52 | 1 | 5.2 | 9.6 | 0.00 | 0.00 | 0.00 | 84 | 1016.3 |
| 20260510000827 | 53 | 5 | 7.0 | 9.6 | 0.00 | 0.00 | 0.00 | 84 | 1016.4 |
| 20260510000326 | 53 | 354 | 7.8 | 9.6 | 0.00 | 0.00 | 0.00 | 84 | 1016.2 |
| 20260509235826 | 53 | 0 | 7.0 | 8.7 | 0.00 | 0.00 | 0.00 | 83 | 1016.2 |
| 20260509235327 | 53 | 17 | 7.0 | 11.3 | 0.00 | 0.00 | 0.00 | 83 | 1016.1 |
| 20260509234825 | 53 | 7 | 5.2 | 11.3 | 0.00 | 0.00 | 0.00 | 83 | 1016.3 |
| 20260509234324 | 53 | 359 | 7.0 | 10.4 | 0.00 | 0.00 | 0.00 | 82 | 1016.3 |
| 20260509234051 | 53 | 10 | 6.1 | 10.4 | 0.00 | 0.00 | 0.00 | 81 | 1016.2 |
| 20260509233323 | 53 | 7 | 6.1 | 11.3 | 0.00 | 0.00 | 0.00 | 81 | 1016.1 |
| 20260509232823 | 54 | 6 | 7.0 | 11.3 | 0.00 | 0.00 | 0.00 | 81 | 1016.2 |
| 20260509232322 | 54 | 13 | 6.1 | 10.4 | 0.00 | 0.00 | 0.00 | 80 | 1016.2 |
| 20260509232056 | 54 | 7 | 7.8 | 10.4 | 0.00 | 0.00 | 0.00 | 80 | 1016.3 |
| 20260509231321 | 54 | 358 | 8.7 | 12.2 | 0.00 | 0.00 | 0.00 | 79 | 1016.4 |
| 20260509230821 | 54 | 5 | 7.0 | 12.2 | 0.00 | 0.00 | 0.00 | 79 | 1016.3 |
| 20260509230321 | 54 | 17 | 7.0 | 9.6 | 0.00 | 0.00 | 0.00 | 79 | 1016.2 |
| 20260509225819 | 54 | 3 | 6.1 | 11.3 | 0.00 | 0.00 | 0.00 | 78 | 1016.3 |
| 20260509225318 | 54 | 19 | 10.4 | 13.0 | 0.00 | 0.00 | 0.00 | 78 | 1016.3 |
| 20260509224818 | 54 | 18 | 8.7 | 13.0 | 0.00 | 0.00 | 0.00 | 78 | 1016.2 |
| 20260509224319 | 54 | 9 | 7.0 | 13.0 | 0.00 | 0.00 | 0.00 | 78 | 1016.2 |
| 20260509223817 | 54 | 0 | 8.7 | 11.3 | 0.00 | 0.00 | 0.00 | 78 | 1016.3 |
| 20260509223318 | 54 | 5 | 7.0 | 10.4 | 0.00 | 0.00 | 0.00 | 77 | 1016.4 |
| 20260509222816 | 54 | 7 | 6.1 | 10.4 | 0.00 | 0.00 | 0.00 | 76 | 1016.4 |
| 20260509222316 | 54 | 17 | 7.0 | 10.4 | 0.00 | 0.00 | 0.00 | 76 | 1016.5 |
| 20260509221815 | 55 | 355 | 6.1 | 10.4 | 0.00 | 0.00 | 0.00 | 75 | 1016.2 |
| 20260509221315 | 55 | 7 | 6.1 | 11.3 | 0.00 | 0.00 | 0.00 | 75 | 1016.3 |
| 20260509220815 | 55 | 17 | 8.7 | 11.3 | 0.00 | 0.00 | 0.00 | 74 | 1016.3 |
| 20260509220313 | 55 | 26 | 7.0 | 11.3 | 0.00 | 0.00 | 0.00 | 74 | 1016.4 |
| 20260509215812 | 55 | 9 | 7.8 | 10.4 | 0.00 | 0.00 | 0.00 | 74 | 1016.5 |
| 20260509215547 | 55 | 11 | 7.0 | 10.4 | 0.00 | 0.00 | 0.00 | 73 | 1016.4 |
| 20260509214803 | 55 | 3 | 5.2 | 10.4 | 0.00 | 0.00 | 0.00 | 73 | 1016.4 |
| 20260509214303 | 55 | 0 | 7.8 | 9.6 | 0.00 | 0.00 | 0.00 | 72 | 1016.4 |
| 20260509213805 | 55 | 21 | 7.8 | 9.6 | 0.00 | 0.00 | 0.00 | 72 | 1016.3 |
| 20260509213302 | 55 | 17 | 7.0 | 7.8 | 0.00 | 0.00 | 0.00 | 72 | 1016.4 |
| 20260509212802 | 55 | 7 | 6.1 | 8.7 | 0.00 | 0.00 | 0.00 | 71 | 1016.3 |
| 20260509212306 | 55 | 11 | 6.1 | 9.6 | 0.00 | 0.00 | 0.00 | 70 | 1016.5 |
| 20260509211802 | 55 | 10 | 7.8 | 9.6 | 0.00 | 0.00 | 0.00 | 70 | 1016.3 |
| 20260509211303 | 56 | 10 | 7.0 | 9.6 | 0.00 | 0.00 | 0.00 | 69 | 1016.3 |
| 20260509210802 | 56 | 16 | 7.0 | 9.6 | 0.00 | 0.00 | 0.00 | 69 | 1016.3 |
| 20260509210302 | 56 | 24 | 7.8 | 8.7 | 0.00 | 0.00 | 0.00 | 69 | 1016.3 |
| 20260509205802 | 56 | 13 | 6.1 | 10.4 | 0.00 | 0.00 | 0.00 | 68 | 1016.3 |
| 20260509205306 | 56 | 5 | 7.0 | 10.4 | 0.00 | 0.00 | 0.00 | 68 | 1016.3 |
| 20260509205028 | 57 | 10 | 8.7 | 10.4 | 0.00 | 0.00 | 0.00 | 68 | 1016.4 |
| 20260509204303 | 57 | 24 | 7.0 | 10.4 | 0.00 | 0.00 | 0.00 | 68 | 1016.4 |
| 20260509203804 | 57 | 14 | 7.8 | 9.6 | 0.00 | 0.00 | 0.00 | 68 | 1016.4 |
| 20260509203303 | 57 | 9 | 7.0 | 9.6 | 0.00 | 0.00 | 0.00 | 67 | 1016.3 |
| 20260509202804 | 57 | 1 | 7.0 | 9.6 | 0.00 | 0.00 | 0.00 | 67 | 1016.4 |
| 20260509202307 | 58 | 10 | 6.1 | 8.7 | 0.00 | 0.00 | 0.00 | 65 | 1016.3 |
| 20260509201804 | 58 | 20 | 7.0 | 10.4 | 0.00 | 0.00 | 0.00 | 65 | 1016.1 |
| 20260509201303 | 58 | 6 | 7.0 | 11.3 | 0.00 | 0.00 | 0.00 | 65 | 1016.2 |
| 20260509200803 | 58 | 7 | 6.1 | 10.4 | 0.00 | 0.00 | 0.00 | 64 | 1016.3 |
| 20260509200301 | 58 | 21 | 5.2 | 10.4 | 0.00 | 0.00 | 0.00 | 64 | 1016.1 |
| 20260509195759 | 58 | 19 | 7.0 | 9.6 | 0.00 | 0.00 | 0.00 | 63 | 1016.0 |
| 20260509195259 | 59 | 5 | 6.1 | 10.4 | 0.00 | 0.00 | 0.00 | 62 | 1016.2 |
| 20260509194758 | 59 | 12 | 10.4 | 10.4 | 0.00 | 0.00 | 0.00 | 63 | 1016.2 |
| 20260509194531 | 59 | 1 | 7.8 | 8.7 | 0.00 | 0.00 | 0.00 | 62 | 1016.4 |
| 20260509193757 | 59 | 12 | 6.1 | 8.7 | 0.00 | 0.00 | 0.00 | 61 | 1016.2 |
| 20260509193523 | 60 | 4 | 6.1 | 9.6 | 0.00 | 0.00 | 0.00 | 60 | 1016.2 |
| 20260509193027 | 60 | 16 | 7.0 | 11.3 | 0.00 | 0.00 | 0.00 | 59 | 1016.2 |
| 20260509192257 | 60 | 11 | 7.0 | 11.3 | 0.00 | 0.00 | 0.00 | 59 | 1016.0 |
| 20260509191755 | 61 | 23 | 7.0 | 8.7 | 0.00 | 0.00 | 0.00 | 57 | 1016.3 |
| 20260509191257 | 61 | 26 | 5.2 | 8.7 | 0.00 | 0.00 | 0.00 | 57 | 1016.2 |
| 20260509191026 | 62 | 6 | 5.2 | 8.7 | 0.00 | 0.00 | 0.00 | 55 | 1016.1 |
| 20260509190253 | 63 | 23 | 6.1 | 8.7 | 0.00 | 0.00 | 0.00 | 54 | 1016.1 |
| 20260509185754 | 64 | 34 | 5.2 | 9.6 | 0.00 | 0.00 | 0.00 | 52 | 1016.1 |
| 20260509185252 | 65 | 12 | 7.0 | 9.6 | 0.00 | 0.00 | 0.00 | 51 | 1016.2 |
| 20260509185024 | 65 | 13 | 6.1 | 10.4 | 0.00 | 0.00 | 0.00 | 51 | 1016.0 |
| 20260509184254 | 66 | 12 | 6.1 | 10.4 | 0.00 | 0.00 | 0.00 | 50 | 1015.9 |